Tracking 19717 objects as of 25-Jun-2019
HD Live streaming from Space Station
objects crossing your sky now

SL-8 R/B

Track SL-8 R/B now!
10-day predictions


NORAD ID: 21131
Int'l Code: 1991-013B
Perigee: 922.4 km
Apogee: 1,018.0 km
Inclination: 82.8 °
Period: 104.3 minutes
Semi major axis: 7341 km
RCS: 7.7831 m2 (large)
Launch date: February 26, 1991
Source: Commonwealth of Independent States (former USSR) (CIS)
Launch site: PLESETSK MISSILE AND SPACE COMPLEX (PKMTR)

Note: This is a ROCKET BODY
aabbcc
Your satellite tracking list
Your tracking list is empty




NASA's NSSDC Master Catalog

Two Line Element Set (TLE):
1 21131U 91013B   19175.49329472 +.00000021 +00000-0 +48676-5 0  9994
2 21131 082.8265 325.1373 0065115 059.2942 301.4611 13.80235437426367
Source of the keplerian elements: AFSPC